[[{"header":{"parameterUnit":"m.s-1","parameterCategory":1,"la1":30.2991,"la2":30.254,"lo1":-89.0895,"lo2":-89.0444,"dx":0.0017,"dy":0.0017,"nx":28,"ny":28,"refTime":"2022-11-03T21:00:00:Z","depth":0,"parameterNumber":2,"parameterNumberName":"U-component_of_WINDS"},"data":[0,0,0,0,0,0,0,0,0,0,0,0,0,0,0,0,0,0,0,0,0,0,0,0,0,0,0,0,0,0,0,0,0,0,0,0,0,0,0,0,0,0,0,0,0,0,0,0,0,0,0,0,0,0,0,0,0,0,-3.3664,-3.3665,0,-3.3762,-3.3763,-3.3765,-3.3739,-3.3737,-3.3735,-3.3733,-3.3835,-3.3839,-3.3844,0,0,0,0,0,0,0,0,0,0,0,0,0,-3.3456,-3.346,-3.3664,-3.3665,-3.3666,-3.3762,-3.3763,-3.3765,-3.3739,-3.3737,-3.3734,-3.3732,-3.3833,-3.3839,-3.3844,0,0,0,0,0,0,0,0,0,0,0,0,0,-3.355,-3.3461,-3.3664,-3.3665,-3.3666,-3.3762,-3.3764,-3.3765,-3.374,-3.3737,-3.3734,-3.3731,-3.3832,-3.3838,-3.3845,-3.3946,0,0,-3.3866,-3.3869,0,0,0,0,0,0,0,0,-3.3544,-3.3557,-3.3664,-3.3665,-3.3666,-3.3735,-3.3728,-3.3826,-3.374,-3.3712,-3.3733,-3.3729,-3.3804,-3.3813,-3.3838,-3.395,-3.3955,-3.3866,-3.387,-3.3873,-3.3875,0,0,0,0,0,0,0,-3.3538,-3.3553,-3.3703,-3.3665,-3.3667,-3.3662,-3.3672,-3.3746,-3.3773,-3.3714,-3.3712,-3.3724,-3.3804,-3.3831,-3.384,-3.3956,-3.3866,-3.3872,-3.3876,-3.3879,-3.4159,-3.4162,0,0,0,0,0,0,-3.353,-3.3548,-3.37,-3.3706,-3.3597,-3.3668,-3.3679,-3.3716,-3.3772,-3.3778,-3.3727,-3.3723,-3.3821,-3.3832,-3.3844,-3.3966,-3.3873,-3.388,-3.3884,-3.4155,-3.4159,-3.4163,0,0,0,0,0,0,-3.3526,-3.3544,-3.3696,-3.3626,-3.3645,-3.3674,-3.3716,-3.372,-3.3747,-3.3782,-3.3787,-3.3749,-3.3819,-3.3834,-3.3921,-3.3969,-3.3883,-3.3889,-3.4151,-3.4157,-3.4161,-3.4211,0,0,0,0,0,0,-3.352,-3.3543,-3.358,-3.3627,-3.3649,-3.3771,-3.3719,-3.3724,-3.3758,-3.3754,-3.3804,-3.381,-3.3818,-3.3911,-3.3928,-3.3977,-3.3894,-3.4147,-3.4154,-3.416,-3.4205,-3.4217,-3.4228,0,0,0,0,0,-3.3513,-3.359,-3.3582,-3.3601,-3.3697,-3.3773,-3.3786,-3.3793,-3.3762,-3.3801,-3.3824,-3.3808,-3.3962,-3.392,-3.3939,-3.3991,-3.4144,-3.4152,-3.4159,-3.42,-3.4215,-3.4227,0,0,0,0,0,0,-3.3548,-3.3596,-3.3588,-3.3683,-3.3724,-3.3769,-3.3817,-3.3808,-3.3859,-3.3853,-3.3861,-3.3873,-3.3962,-3.3985,-3.3938,-3.4092,-3.4048,-3.406,-3.4073,-3.4088,-3.4099,-3.4091,-3.39,0,0,0,0,0,-3.3567,-3.3624,-3.3664,-3.3744,-3.3765,-3.3788,-3.3822,-3.3824,-3.3867,-3.3885,-3.3914,-3.3957,-3.4015,-3.4053,-3.4108,-3.4209,-3.4221,-3.4255,-3.4266,-3.4275,-3.4284,-3.4341,-3.4357,-3.4188,-3.4188,-3.4187,0,0,-3.3606,-3.364,-3.3676,-3.3752,-3.3784,-3.3844,-3.3803,-3.3868,-3.3913,-3.3895,-3.3978,-3.4002,-3.405,-3.4145,-3.4188,-3.4167,-3.4334,-3.4284,-3.4291,-3.4296,-3.4351,-3.4367,-3.4381,-3.4193,-3.4192,-3.4191,0,0,-3.3709,-3.374,-3.381,-3.3844,-3.3893,-3.3909,-3.3926,-3.3972,-3.3987,-3.4071,-3.4059,-3.4114,-3.4213,-3.4249,-3.428,-3.4399,-3.4386,-3.4417,-3.4474,-3.4529,-3.4543,-3.4555,-3.4597,-3.4613,-3.4426,-3.4427,-3.4427,0,-3.3751,-3.3841,-3.3848,-3.3915,-3.3949,-3.3936,-3.4009,-3.4041,-3.4106,-3.4131,-3.4106,-3.4232,-3.4264,-3.4367,-3.4397,-3.4422,-3.4443,-3.441,-3.454,-3.4552,-3.4563,-3.4604,-3.462,-3.443,-3.443,-3.4429,-3.4429,0,-3.3891,-3.3954,-3.4005,-3.4068,-3.4109,-3.4178,-3.4197,-3.4238,-3.4238,-3.4256,-3.4343,-3.4381,-3.4444,-3.4469,-3.447,-3.4574,-3.4559,-3.4538,-3.4493,-3.4583,-3.4621,-3.4637,-3.4435,-3.4433,-3.4432,-3.4432,0,0,-3.4016,-3.4084,-3.4103,-3.4132,-3.4187,-3.4236,-3.4306,-3.4368,-3.4403,-3.4449,-3.4508,-3.4594,-3.4575,-3.461,-3.4615,-3.4663,-3.4756,-3.4636,-3.4637,-3.4657,-3.4874,-3.489,-3.4907,-3.4749,-3.4752,-3.4755,-3.487,0,-3.4123,-3.4245,-3.4254,-3.4364,-3.4423,-3.4413,-3.4474,-3.4515,-3.4534,-3.4588,-3.461,-3.467,-3.464,-3.4662,-3.471,-3.4735,-3.48,-3.4727,-3.4805,-3.4807,-3.4792,-3.4928,-3.4944,-3.5051,-3.4885,-3.4888,-3.489,0,-3.4263,-3.4314,-3.443,-3.4478,-3.4503,-3.4557,-3.4616,-3.4667,-3.4714,-3.4725,-3.4766,-3.4765,-3.4838,-3.4792,-3.4893,-3.4843,-3.4877,-3.4894,-3.4898,-3.4905,-3.4853,-3.4938,-3.5085,-3.5101,-3.4914,-3.4912,-3.491,0,-3.4343,-3.4441,-3.4523,-3.4548,-3.4606,-3.4645,-3.4671,-3.4716,-3.4753,-3.4805,-3.4829,-3.4889,-3.4922,-3.4969,-3.4984,-3.495,-3.5086,-3.5041,-3.5097,-3.5097,-3.5125,-3.5123,-3.5279,-3.5148,-3.5147,-3.5147,-3.5147,0,-3.4461,-3.4532,-3.4559,-3.461,-3.469,-3.4702,-3.4781,-3.4805,-3.4845,-3.4901,-3.4897,-3.495,-3.4967,-3.5024,-3.5037,-3.5119,-3.5134,-3.5146,-3.5148,-3.5146,-3.5144,-3.5166,-3.5159,-3.5151,-3.515,-3.515,-3.5149,0,-3.4563,-3.4584,-3.4672,-3.4721,-3.4735,-3.4792,-3.4834,-3.4884,-3.4903,-3.4974,-3.4992,-3.5023,-3.5089,-3.511,-3.519,-3.5198,-3.5295,-3.5291,-3.5279,-3.5279,-3.5334,-3.5329,-3.551,-3.5534,-3.5387,-3.5388,-3.5389,0,-3.4636,-3.469,-3.4745,-3.4783,-3.481,-3.487,-3.4908,-3.4923,-3.4963,-3.5023,-3.5065,-3.5131,-3.5184,-3.5291,-3.5321,-3.5383,-3.538,-3.5439,-3.5389,-3.5385,-3.5381,-3.5377,-3.5383,-3.5448,-3.545,-3.5451,-3.5452,0,-3.4764,-3.4772,-3.4827,-3.4887,-3.4933,-3.498,-3.5026,-3.5057,-3.5079,-3.5125,-3.5192,-3.5234,-3.5316,-3.5382,-3.5445,-3.5473,-3.5467,-3.5468,-3.5484,-3.5482,-3.5472,-3.5478,-3.5304,-3.5463,-3.5462,-3.5461,-3.5461,-3.546,-3.4854,-3.4902,-3.4949,-3.5011,-3.5047,-3.5091,-3.514,-3.5167,-3.5223,-3.5291,-3.5297,-3.537,-3.5418,-3.5502,-3.5534,-3.5593,-3.5576,-3.5599,-3.5605,-3.561,-3.5615,-3.5464,-3.5604,-3.5604,-3.5604,-3.5603,-3.5603,0,-3.4981,-3.5011,-3.5069,-3.5133,-3.5183,-3.5173,-3.5224,-3.5266,-3.5331,-3.5376,-3.5429,-3.5507,-3.5572,-3.5608,-3.5673,-3.5713,-3.5712,-3.5729,-3.5726,-3.5733,-3.5626,-3.5606,-3.5729,-3.5729,-3.5729,-3.5729,-3.5729,-3.5729,-3.5053,-3.5135,-3.515,-3.525,-3.528,-3.5352,-3.5382,-3.5423,-3.5459,-3.5547,-3.56,-3.5624,-3.5666,-3.5734,-3.5793,-3.5803,-3.5826,-3.5846,-3.5853,-3.5753,-3.574,-3.5728,-3.5708,-3.5851,-3.5851,-3.5955,-3.5956,-3.5956]},{"header":{"parameterUnit":"m.s-1","parameterCategory":1,"la1":30.2991,"la2":30.254,"lo1":-89.0895,"lo2":-89.0444,"dx":0.0017,"dy":0.0017,"nx":28,"ny":28,"refTime":"2022-11-03T21:00:00:Z","depth":0,"parameterNumber":3,"parameterNumberName":"V-component_of_WINDS"},"data":[0,0,0,0,0,0,0,0,0,0,0,0,0,0,0,0,0,0,0,0,0,0,0,0,0,0,0,0,0,0,0,0,0,0,0,0,0,0,0,0,0,0,0,0,0,0,0,0,0,0,0,0,0,0,0,0,0,0,1.6401,1.6402,0,1.6456,1.6456,1.6457,1.6444,1.6443,1.6442,1.6441,1.6494,1.6496,1.6498,0,0,0,0,0,0,0,0,0,0,0,0,0,1.6286,1.6288,1.6401,1.6402,1.6403,1.6456,1.6456,1.6457,1.6444,1.6443,1.6441,1.644,1.6493,1.6496,1.6499,0,0,0,0,0,0,0,0,0,0,0,0,0,1.6338,1.6289,1.6401,1.6403,1.6403,1.6456,1.6456,1.6457,1.6444,1.6443,1.6441,1.644,1.6492,1.6496,1.6499,1.6553,0,0,1.651,1.6512,0,0,0,0,0,0,0,0,1.6335,1.6342,1.6402,1.6403,1.6403,1.6441,1.6435,1.6489,1.6445,1.6429,1.6441,1.6439,1.6477,1.6482,1.6496,1.6555,1.6557,1.651,1.6513,1.6514,1.6515,0,0,0,0,0,0,0,1.6331,1.6339,1.6423,1.6403,1.6404,1.64,1.6406,1.6445,1.6461,1.643,1.6429,1.6436,1.6478,1.6492,1.6497,1.6558,1.651,1.6513,1.6516,1.6517,1.6667,1.6669,0,0,0,0,0,0,1.6327,1.6336,1.6421,1.6424,1.6365,1.6404,1.641,1.6431,1.6461,1.6464,1.6437,1.6435,1.6487,1.6493,1.6499,1.6565,1.6514,1.6517,1.6519,1.6665,1.6668,1.667,0,0,0,0,0,0,1.6325,1.6335,1.6419,1.638,1.6391,1.6407,1.6431,1.6433,1.6447,1.6466,1.6469,1.6449,1.6486,1.6494,1.654,1.6567,1.6519,1.6522,1.6663,1.6666,1.6669,1.6698,0,0,0,0,0,0,1.6321,1.6334,1.6354,1.6381,1.6393,1.646,1.6432,1.6435,1.6454,1.6452,1.6478,1.6481,1.6485,1.6535,1.6544,1.6571,1.6525,1.6661,1.6664,1.6668,1.6695,1.6701,1.6707,0,0,0,0,0,1.6317,1.6359,1.6355,1.6366,1.6419,1.6461,1.6468,1.6473,1.6456,1.6477,1.649,1.648,1.6563,1.654,1.655,1.6578,1.6659,1.6663,1.6667,1.6692,1.67,1.6707,0,0,0,0,0,0,1.6333,1.6362,1.6359,1.641,1.6434,1.6459,1.6485,1.6481,1.6508,1.6505,1.6509,1.6515,1.6563,1.6575,1.6549,1.6633,1.6608,1.6615,1.6624,1.6632,1.6638,1.6634,1.6528,0,0,0,0,0,1.6343,1.6375,1.6399,1.6442,1.6454,1.6468,1.6486,1.6489,1.6512,1.6522,1.6537,1.656,1.6592,1.6612,1.6642,1.6696,1.6703,1.6721,1.6727,1.6732,1.6738,1.677,1.6779,1.6683,1.6683,1.6683,0,0,1.6363,1.6383,1.6403,1.6446,1.6464,1.6498,1.6476,1.6512,1.6537,1.6527,1.6573,1.6585,1.6611,1.6663,1.6686,1.6674,1.6766,1.6738,1.6742,1.6744,1.6775,1.6785,1.6793,1.6686,1.6685,1.6685,0,0,1.6417,1.6435,1.6475,1.6494,1.6523,1.6532,1.6542,1.6568,1.6577,1.6623,1.6617,1.6647,1.67,1.672,1.6737,1.6802,1.6796,1.6812,1.6844,1.6876,1.6883,1.689,1.6915,1.6924,1.6817,1.6817,1.6817,0,1.6438,1.649,1.6495,1.6533,1.6553,1.6547,1.6588,1.6606,1.6642,1.6656,1.6643,1.6712,1.6728,1.6786,1.6802,1.6816,1.6828,1.6809,1.6882,1.6889,1.6895,1.6919,1.6929,1.6819,1.6819,1.6819,1.6818,0,1.6515,1.6551,1.6579,1.6617,1.664,1.6679,1.6691,1.6714,1.6714,1.6725,1.6774,1.6794,1.6829,1.6843,1.6843,1.6901,1.6893,1.6881,1.6856,1.6906,1.6929,1.6938,1.6822,1.6821,1.682,1.682,0,0,1.6579,1.6622,1.6633,1.6651,1.6684,1.6711,1.6751,1.6786,1.6807,1.6833,1.6867,1.6913,1.6903,1.6922,1.6925,1.6952,1.7006,1.6937,1.6938,1.695,1.7074,1.7084,1.7094,1.7001,1.7003,1.7005,1.7072,0,1.6638,1.6709,1.6716,1.6779,1.6814,1.681,1.6844,1.6868,1.688,1.6911,1.6923,1.6957,1.694,1.6952,1.6979,1.6993,1.7031,1.6988,1.7034,1.7035,1.7029,1.7106,1.7116,1.7179,1.7081,1.7082,1.7083,0,1.6715,1.6746,1.6813,1.6844,1.6859,1.689,1.6925,1.6954,1.6981,1.6988,1.7012,1.7011,1.7053,1.7027,1.7084,1.7056,1.7075,1.7085,1.7087,1.7092,1.7063,1.7115,1.7199,1.7209,1.7097,1.7096,1.7095,0,1.6758,1.6816,1.6864,1.688,1.6916,1.6939,1.6955,1.6981,1.7003,1.7033,1.7048,1.7082,1.7101,1.7128,1.7137,1.7117,1.7196,1.7169,1.7203,1.7203,1.722,1.7219,1.731,1.7231,1.723,1.723,1.723,0,1.6824,1.6865,1.6885,1.6914,1.6962,1.697,1.7017,1.7031,1.7056,1.7089,1.7086,1.7117,1.7127,1.716,1.7168,1.7216,1.7224,1.7231,1.7233,1.7232,1.7232,1.7245,1.7242,1.7233,1.7232,1.7232,1.7231,0,1.6879,1.6894,1.6947,1.6978,1.6987,1.702,1.7047,1.7076,1.7089,1.7131,1.7141,1.716,1.7199,1.7211,1.7257,1.7262,1.7319,1.7316,1.7311,1.7311,1.7345,1.7342,1.7449,1.7464,1.7373,1.7374,1.7375,0,1.692,1.6953,1.6989,1.7011,1.7029,1.7065,1.7089,1.7099,1.7123,1.7159,1.7184,1.7223,1.7255,1.7318,1.7335,1.7372,1.737,1.7405,1.7376,1.7375,1.7373,1.7372,1.7376,1.7411,1.7412,1.7413,1.7413,0,1.6993,1.6999,1.7033,1.7071,1.71,1.7129,1.7158,1.7176,1.7191,1.7219,1.7259,1.7284,1.7333,1.7373,1.741,1.7426,1.7423,1.7423,1.7433,1.7433,1.7429,1.7434,1.7327,1.742,1.7419,1.7419,1.7419,1.7418,1.7044,1.7074,1.7104,1.7143,1.7166,1.7194,1.7224,1.7241,1.7276,1.7317,1.7321,1.7366,1.7395,1.7445,1.7464,1.7499,1.7489,1.7503,1.7507,1.751,1.7514,1.7423,1.7505,1.7505,1.7505,1.7505,1.7505,0,1.7118,1.7138,1.7174,1.7215,1.7246,1.7242,1.7274,1.73,1.734,1.7368,1.74,1.7448,1.7487,1.7509,1.7548,1.7572,1.7572,1.7582,1.7581,1.7586,1.752,1.7508,1.7582,1.7582,1.7582,1.7582,1.7582,1.7582,1.716,1.7211,1.7222,1.7285,1.7304,1.7349,1.7369,1.7394,1.7417,1.7472,1.7505,1.7519,1.7545,1.7587,1.7622,1.7628,1.7643,1.7655,1.766,1.7598,1.759,1.7582,1.7571,1.7658,1.7658,1.7723,1.7723,1.7724]}]]